Home > Weather > Heide > Past weeks

Flag for Germany Past Weather in Heide, Schleswig-Holstein, Germany — Yesterday and Last 2 Weeks

Now
59 °F

Passing clouds.


Feels Like: 59 °F
Forecast: 60 / 70 °F
Wind: 1 mph from East

Location: Hohn

Current Time: Jul 27, 2016 at 3:17:23 AM

Latest Report: Jul 27, 2016 at 2:20 AM


Visibility: N/A

Pressure: 30.09 "Hg

Humidity: 88%

Dew Point: 55 °F

Location of HeideLocation

Past Weather in Heide — Graph

°F

Heide Temperature Yesterday

Maximum temperature yesterday: 73 °F (at 4:20 PM)
Minimum temperature yesterday: 57 °F (at 5:20 AM)
Average temperature yesterday: 65 °F

High & Low Weather Summary for the Past Weeks

 TemperatureHumidityPressure
High84 °F (Jul 24, 4:20 PM)100% (Jul 13, 1:20 AM)30.18 "Hg (Jul 13, 1:20 AM)
Low46 °F (Jul 14, 4:20 AM)37% (Jul 24, 4:20 PM)29.74 "Hg (Jul 12, 1:20 AM)
Average65 °F80%30.04 "Hg
* Reported Jul 12 1:20 AM — Jul 27 1:20 AM, Heide, Weather by CustomWeather, © 2016

Note: Actual official high and low records may vary slightly from our data, if they occured in-between our weather recording intervals... More about our weather records

Advertising

Heide Weather History for the Previous 24 Hours

Scroll right to see more
 ConditionsComfort  
Time TempWeatherWind HumidityBarometerVisibility
1:20 AM
Wed, Jul 27
59 °FPassing clouds.No wind88%30.09 "HgN/A
12:20 AM59 °FPassing clouds.1 mph88%30.09 "HgN/A
11:20 PM
Tue, Jul 26
61 °FPassing clouds.1 mph83%30.09 "HgN/A
10:20 PM61 °FPartly sunny.No wind83%30.12 "HgN/A
8:20 PM68 °FScattered clouds.5 mph60%30.09 "HgN/A
7:20 PM70 °FScattered clouds.8 mph57%30.12 "HgN/A
6:20 PM72 °FScattered clouds.6 mph53%30.12 "HgN/A
5:20 PM72 °FPartly sunny.9 mph53%30.12 "HgN/A
4:20 PM73 °FScattered clouds.9 mph50%30.12 "HgN/A
3:20 PM72 °FBroken clouds.13 mph50%30.12 "HgN/A
2:20 PM72 °FScattered clouds.13 mph57%30.12 "HgN/A
1:20 PM72 °FBroken clouds.9 mph57%30.12 "HgN/A
12:20 PM68 °FBroken clouds.10 mph60%30.12 "HgN/A
11:20 AM68 °FPartly sunny.9 mph60%30.12 "HgN/A
10:20 AM66 °FPartly sunny.7 mph68%30.12 "HgN/A
9:20 AM66 °FPassing clouds.8 mph68%30.12 "HgN/A
8:20 AM63 °FPassing clouds.7 mph83%30.12 "HgN/A
7:20 AM59 °FScattered clouds.5 mph94%30.09 "HgN/A
6:20 AM57 °FPassing clouds.5 mph94%30.09 "HgN/A
5:20 AM57 °FPassing clouds.5 mph94%30.07 "HgN/A
4:20 AM59 °FPassing clouds.5 mph94%30.07 "HgN/A
3:20 AM59 °FPassing clouds.5 mph94%30.07 "HgN/A
Weather by CustomWeather, © 2016

See weather overviewHow to use our weather pages